Regional Weather Roundup
Issued by NWS

Home | Current Version | Previous Version | Graphics & Text | Print | Product List | Glossary On
Versions: 1 2 3 4 5 6 7 8 9 10 11 12 13 14 15 16 17 18 19 20 21 22 23 24 25 26 27 28 29 30 31 32 33 34 35 36 37 38 39 40 41 42 43 44 45 46 47 48 49 50
000
ASUS43 KTOP 291308
RWRKS

WEATHER ROUNDUP FOR KANSAS
NATIONAL WEATHER SERVICE GOODLAND KS
800 AM CDT FRI AUG 29 2014

NOTE:  "FAIR" INDICATES FEW OR NO CLOUDS BELOW 12,000 FEET WITH NO
SIGNIFICANT WEATHER AND/OR OBSTRUCTIONS TO VISIBILITY.

KSZ001>006-013>018-027>032-041>047-291400-
NORTHWEST KANSAS

CITY           SKY/WX    TMP DP  RH WIND       PRES   REMARKS
GOODLAND       CLEAR     55  52  89 W5        29.99R
HAYS           MOSUNNY   63  57  82 W6        29.89S
HILL CITY      PTCLDY    61  58  90 W3        29.91R
RUSSELL        PTSUNNY   65  61  87 W8        29.87R
$$

KSZ061>065-074>080-084>089-291400-
SOUTHWEST KANSAS

CITY           SKY/WX    TMP DP  RH WIND       PRES   REMARKS
DODGE CITY     CLEAR     63  58  83 W8        29.94R
ELKHART          N/A     59  51  75 W5          N/A
GARDEN CITY    CLEAR     58  56  93 W8        29.96R
GREAT BEND     MOSUNNY   64  59  82 W8        29.90R
LIBERAL        CLEAR     61  54  77 NW6       29.99S
PRATT          SUNNY     64  61  88 W6        29.91S
$$

KSZ066>073-081>083-090>101-291400-
SOUTHEAST KANSAS

CITY           SKY/WX    TMP DP  RH WIND       PRES   REMARKS
CHANUTE        PTSUNNY   72  64  76 W7        29.90R
COFFEYVILLE    CLOUDY    72  69  90 SW8       29.90R
HUTCHINSON     CLOUDY    67  64  90 SE3       29.90R
MEDICINE LODGE   N/A     65  63  93 SW6       29.91R
NEWTON         CLOUDY    66  61  82 CALM      29.93S
PARSONS        LGT RAIN  72  68  87 SW8       29.91R
WICHITA INTL   CLOUDY    69  65  86 SW3       29.89R
WICHITA JABRA  CLOUDY    68  66  93 SE3       29.90R
WICHITA MCCONL CLOUDY    69  69 100 SE3       29.90R
WINFIELD       CLOUDY    70  68  93 CALM      29.90S
$$

KSZ007>012-019>026-033>040-048>060-102>105-291400-
NORTHEAST KANSAS

CITY           SKY/WX    TMP DP  RH WIND       PRES   REMARKS
CONCORDIA      LGT RAIN  67  64  90 SW8       29.85R
EMPORIA        LGT RAIN  69  65  86 S6        29.90R
LAWRENCE       MOSUNNY   73  66  78 E5        29.86S HAZE
MANHATTAN      LGT RAIN  69  64  84 SW7       29.86R
MARYSVILLE     HVY RAIN  68  66  94 SW7       29.85S
OLATHE IND     MOSUNNY   73  65  75 S5        29.89R
OLATHE EXE     MOSUNNY   72  65  78 S3        29.88R
SALINA         CLOUDY    68  65  90 S7        29.88R
TOPEKA BILLARD PTSUNNY   74  67  78 S6        29.87R
TOPEKA FORBES  CLOUDY    73  65  75 S9        29.88R
$$



USA.gov is the U.S. government's official web portal to all federal, state and local government web resources and services.